ONEWEB-0059 (45162 NORAD) Tracking and Keplerian Element Data

This shows tracking and keplerian element data for the satellite.

Feedback or suggestion? Click here.




ElementValue
Catalog45162
NameONEWEB-0059
Epoch Orbit175
Epoch Day184.91667824
Epoch Year2020
RAAN117.0302
Inclination87.5216
Eccentricity0.0023636
Argument of Perigee126.4197
Mean Anonmoly238.3404
Mean Motion14.85499791
Decay Rate-0.0005353
L11 45162U 20008AH 20184.91667824 -.00053530 00000-0 -62296-2 0 9991
L22 45162 87.5216 117.0302 0023636 126.4197 238.3404 14.85499791 1757

Live tracking and technical data element details for ONEWEB-0059 (NORAD 45162). ONEWEB-0059 can be tracked NOW for your location showing map with azimuth and elevation plus other details from your city location.

Track the satellite on the map from your city or location and see movement details for azimuth, elevation, latitude, longitude, range, height, and movement on the map or in text.







IsCatalogInMostPopularTable: catalog: 45162, numindb: 33
Update: records affected: 1



GetName: 45162 ONEWEB-0059

Hit Count: updated at: Fri, 03 Jul 2020 17:11:22 GMT